Terug naar catalogus

THORAD AGENA D DEB

ActiefLEO
NORAD 4173·DEBRIS·🇺🇸 United States

Gelanceerd Sep 30, 1969 vanaf Vandenberg Space Force Base

Loading…

Volgende Passages (komende 24 uur)

TLE

VersSource: Space-Track

Epoch: Sep 14, 2026, 02:42 UTC

1 04173U 69082AR  26257.11309587  .00003962  00000-0  46957-3 0  9990
2 04173  70.0654 142.1189 0023220 253.2699 106.5906 14.85125422986688

Volg THORAD AGENA D DEB in realtime met AllMySat

Download on the App Store